Location: Peebles
(55.6412°N, 3.1714°W)
Time: 18:01:52
(UTC+00:00)

CSL-04 Rocket - Visible Passes

Search period start: 24 January 2022 00:00
Search period end: 03 February 2022 00:00
Orbit: 806 x 860 km, 98.9° (Epoch: 23 January)

Date Brightness Start Highest point End Pass type
(mag) Time Alt. Az. Time Alt. Az. Time Alt. Az.
24 Jan 4.5 18:00:05 10° ESE 18:04:33 28° NE 18:09:05 10° N visible
24 Jan 3.8 19:41:35 28° S 19:44:28 73° WSW 19:49:56 10° NNW visible
24 Jan 6.3 21:23:12 11° WSW 21:25:48 15° W 21:28:53 10° NW visible
25 Jan 4.8 17:43:41 10° E 17:47:46 22° NE 17:51:54 10° N visible
25 Jan 3.5 19:24:07 24° SSE 19:27:28 87° ENE 19:32:57 10° NNW visible
25 Jan 5.9 21:05:43 14° SW 21:08:33 20° W 21:12:29 10° NW visible
26 Jan 5.0 17:27:26 10° E 17:31:02 18° NE 17:34:40 10° N visible
26 Jan 3.5 19:06:38 19° SSE 19:10:30 69° ENE 19:15:57 10° NNW visible
26 Jan 5.6 20:48:15 16° SW 20:51:20 26° W 20:55:52 10° NW visible
27 Jan 6.5 07:17:39 10° NE 07:21:05 16° E 07:24:31 10° ESE visible
27 Jan 5.2 17:11:19 10° ENE 17:14:19 15° NE 17:17:21 10° N visible
27 Jan 3.7 18:49:10 14° SE 18:53:35 53° ENE 18:58:54 10° N visible
27 Jan 5.1 20:30:47 17° SSW 20:34:10 34° W 20:39:07 10° NNW visible
28 Jan 6.7 07:01:34 10° ENE 07:03:48 12° E 07:06:02 10° ESE visible
28 Jan 4.0 18:31:41 10° SE 18:36:42 42° ENE 18:41:49 10° N visible
28 Jan 4.7 20:13:19 18° SSW 20:17:03 44° W 20:22:17 10° NNW visible
29 Jan 4.3 18:15:05 10° ESE 18:19:51 34° ENE 18:24:43 10° N visible
29 Jan 4.2 19:55:49 17° S 19:59:59 58° WSW 20:05:24 10° NNW visible
29 Jan 6.5 21:39:40 10° W 21:41:33 12° W 21:43:27 10° WNW visible
30 Jan 4.6 17:58:34 10° ESE 18:03:03 27° NE 18:07:35 10° N visible
30 Jan 3.8 19:38:20 15° S 19:42:57 75° WSW 19:48:27 10° NNW visible
30 Jan 6.2 21:21:03 10° WSW 21:24:15 16° W 21:27:30 10° NW visible
31 Jan 4.8 17:42:12 10° E 17:46:17 22° NE 17:50:25 10° N visible
31 Jan 3.6 19:20:51 12° SSE 19:25:57 85° ENE 19:31:29 10° NNW visible
31 Jan 5.9 21:03:01 10° SW 21:07:01 21° W 21:11:04 10° NW visible
01 Feb 5.1 17:25:57 10° E 17:29:33 18° NE 17:33:10 10° N visible
01 Feb 3.6 19:03:38 10° SSE 19:09:00 67° ENE 19:14:27 10° NNW visible
01 Feb 5.5 20:45:16 10° SSW 20:49:48 27° W 20:54:26 10° NW visible
02 Feb 6.6 07:16:13 10° NE 07:19:34 16° E 07:22:55 10° ESE visible
02 Feb 3.8 18:46:51 10° SE 18:52:05 52° ENE 18:57:25 10° N visible
02 Feb 5.1 20:27:43 10° SSW 20:32:39 35° W 20:37:40 10° NNW visible
